Regional Weather Roundup
Issued by NWS

Home | Current Version | Previous Version | Graphics & Text | Print | Product List | Glossary On
Versions: 1 2 3 4 5 6 7 8 9 10 11 12 13 14 15 16 17 18 19 20 21 22 23 24 25 26 27 28 29 30 31 32 33 34 35 36 37 38 39 40 41 42 43 44 45 46 47 48 49 50
000
ASUS43 KBIS 300010
RWRND

NORTH DAKOTA REGIONAL WEATHER ROUNDUP
NATIONAL WEATHER SERVICE BISMARCK ND
700 PM CDT SAT APR 29 2017

NOTE: "FAIR" INDICATES FEW OR NO CLOUDS BELOW 12,000 FEET WITH NO
SIGNIFICANT WEATHER AND/OR OBSTRUCTIONS TO VISIBILITY.


NDZ001>003-009>011-017-300100-
NORTHWEST NORTH DAKOTA

CITY           SKY/WX    TMP DP  RH WIND       PRES   REMARKS
WILLISTON      FAIR      61  32  33 SW8       30.14F
6HR MIN TEMP:  59; 6HR MAX TEMP:  64;

MINOT          PTSUNNY   63  26  24 S7        30.14F
MINOT AFB      CLOUDY    62  29  29 W10       30.13F
$$

NDZ018>021-031>035-040>046-300100-
SOUTHWEST NORTH DAKOTA

CITY           SKY/WX    TMP DP  RH WIND       PRES   REMARKS
BISMARCK       FAIR      62  21  20 VRB7      30.19F
6HR MIN TEMP:  59; 6HR MAX TEMP:  65;

DICKINSON      CLOUDY    60  16  18 CALM      30.14F
GARRISON         N/A     61  21  21 S9        30.16S
6HR MIN TEMP:  58; 6HR MAX TEMP:  63;

HETTINGER ARPT SUNNY     57  19  22 CALM      30.19S
$$

NDZ004>008-012>016-024-026-027-054-300100-
NORTHEAST NORTH DAKOTA

CITY           SKY/WX    TMP DP  RH WIND       PRES   REMARKS
GRAND FORKS    MOSUNNY   61  24  24 S3        30.22F
GRND FRKS AFB  SUNNY     58  20  22 SE6       30.23F
DEVILS LAKE    FAIR      59  21  23 SE10      30.20F
$$

NDZ022-023-025-028>030-036>039-047>053-300100-
SOUTHEAST NORTH DAKOTA

CITY           SKY/WX    TMP DP  RH WIND       PRES   REMARKS
FARGO          SUNNY     60  21  22 NE10      30.20F
6HR MIN TEMP:  55; 6HR MAX TEMP:  62;

JAMESTOWN      FAIR      59  22  24 NE5       30.19F
$$





USA.gov is the U.S. government's official web portal to all federal, state and local government web resources and services.